Regional Weather Roundup
Issued by NWS Northern Indiana

Home | Current Version | Previous Version | Graphics & Text | Print | Product List | Glossary On
Versions: 1 2 3 4 5 6 7 8 9 10 11 12 13 14 15 16 17 18 19 20 21 22 23 24 25 26 27 28 29 30 31 32 33 34 35 36 37 38 39 40 41 42 43 44 45 46 47 48 49 50
000
ASUS43 KIWX 261510
RWRIWX

KIWX WEATHER ROUNDUP
NATIONAL WEATHER SERVICE NORTHERN INDIANA
1100 AM EDT TUE JUL 26 2016

NOTE: "FAIR" INDICATES FEW OR NO CLOUDS BELOW 12,000 FEET WITH NO
SIGNIFICANT WEATHER AND/OR OBSTRUCTIONS TO VISIBILITY.

* THESE STATIONS ARE NOT UNDER NWS QUALITY CONTROL. THEY ALSO MAY NOT
  REPORT WEATHER SUCH AS PRECIPITATION OR FOG.

INZ001>027-261600-
NORTHERN INDIANA

CITY           SKY/WX    TMP DP  RH WIND       PRES   REMARKS
GARY*          MOSUNNY   81  70  69 VRB5      30.08R
VALPARAISO     SUNNY     80  65  59 E6        30.08S
MICHIGAN CITY* SUNNY     81  64  57 E3        30.08S
LAPORTE*       SUNNY     81  66  60 CALM      30.09S
KNOX*          MOSUNNY   79  55  44 E6        30.07S
SOUTH BEND     SUNNY     80  63  55 CALM      30.08S
ELKHART*       SUNNY     79  68  69 E8        30.09R
GOSHEN         SUNNY     80  62  54 E6        30.08S
MONTICELLO*    MOSUNNY   76  63  64 E5        30.06F
LOGANSPORT*    CLOUDY    77  64  65 E8        30.08F
ROCHESTER*     SUNNY     81  66  61 E7        30.09R
WARSAW*        SUNNY     77  64  65 E6        30.08S
ANGOLA*          N/A     79  72  78 E6        30.08S
FORT WAYNE     PTSUNNY   79  62  56 SE6       30.08S
HUNTINGTON*    MOSUNNY   77  67  70 E5        30.07F
PERU/GRISSOM   CLOUDY    78  65  63 E6        30.07R
MARION*        CLOUDY    78  64  62 E5        30.08F

$$
INZ028>050-261600-
CENTRAL INDIANA

CITY           SKY/WX    TMP DP  RH WIND       PRES   REMARKS
LAFAYETTE      CLOUDY    76  67  73 E7        30.06S
KOKOMO*        MOSUNNY   77  63  61 E8        30.08S
MUNCIE*        PTSUNNY   79  66  64 CALM      30.08R
INDIANAPOLIS   CLOUDY    80  63  55 E8        30.07R

$$
MIZ043>046-050>051-056>058-064>065-071>073-077>080-261600-
SOUTHWEST LOWER MICHIGAN

CITY           SKY/WX    TMP DP  RH WIND       PRES   REMARKS
BATTLE CREEK   SUNNY     77  63  61 CALM      30.09S
BENTON HARBOR  SUNNY     82  62  50 NE5       30.07S
COLDWATER*     SUNNY     77  62  59 CALM      30.09S
HOLLAND        SUNNY     81  67  62 VRB7      30.08S
GRAND RAPIDS   MOSUNNY   82  66  58 W6        30.07S
KALAMAZOO      SUNNY     80  60  50 SE3       30.09R
STURGIS*       SUNNY     77  64  64 E3        30.08S
THREE RIVERS*  FAIR      78  63  58 E3        30.09S

$$
OHZ001>008-015>018-024>025-261600-
NORTHWEST OHIO

CITY           SKY/WX    TMP DP  RH WIND       PRES   REMARKS
DEFIANCE       SUNNY     80  64  58 VRB3      30.08R
FINDLAY        MOSUNNY   81  63  54 E7        30.06S
TOLEDO EXPRESS SUNNY     80  65  59 NE5       30.06S
TOLEDO METCALF MOSUNNY   81  61  50 NE8       30.07S
LIMA           MOSUNNY   78  67  68 E7        30.07S

$$
AND FOR LAKE MICHIGAN COASTAL AND OPEN LAKE BUOY OBSERVATIONS

STATION/POSITION TEMP    WIND        PRES    VSBY  WAVE
                 AIR SEA DIR/SP/G                  HT/PER
                 (F)     (DEG/KT/KT) (MB)    (MI)  (FT/S)
CALUMET HARBOR    76      50/  3/  4 1017.6R
MICHIGAN CITY     75      20/  5/  5   N/A
BURNS HARBOR      75     360/  4/  6 1018.6S
SAINT JOSEPH      78     320/  3/  3 1019.3R
SOUTH LAKE BUOY   73 74  340/  4/  4 1017.5R         0
4 MI NW BRIDGMAN  76 77  310/  2/  2 1018.1R         0
MICHIGAN CITY     76 76   30/  4/  4   N/A           0

$$
&&




USA.gov is the U.S. government's official web portal to all federal, state and local government web resources and services.